Home   Weather   Cranbrook   Past weeks

Flag for Canada Past Weather in Cranbrook, British Columbia, Canada — Yesterday and Last 2 Weeks

Now
27 °F

Passing clouds.


Feels Like: 20 °F
Forecast: 17 / 32 °F
Wind: 6 mph from West

Location: Cranbrook

Current Time: Jan 20, 2017 at 7:23:01 pm

Latest Report: Jan 20, 2017 at 7:00 pm


Visibility: 25 mi

Pressure: 29.44 "Hg (26.16 "Hg at 933m altitude)

Humidity: 86%

Dew Point: 23 °F

Location of CranbrookLocation

Past Weather in Cranbrook — Graph

°F

Cranbrook Temperature Yesterday

Maximum temperature yesterday: 41 °F (at 1:00 pm)
Minimum temperature yesterday: 32 °F (at 2:00 am)
Average temperature yesterday: 36 °F

High & Low Weather Summary for the Past Weeks

 TemperatureHumidityPressure
High41 °F (Jan 19, 1:00 pm)100% (Jan 18, 2:00 am)30.80 "Hg (Jan 18, 2:00 am)
Low-20 °F (Jan 12, 7:00 am)52% (Jan 10, 4:00 pm)29.41 "Hg (Jan 20, 4:00 pm)
Average10 °F80%30.16 "Hg
* Reported Jan 5 5:00 pm — Jan 20 5:00 pm, Cranbrook, Weather by CustomWeather, © 2017

Note: Actual official high and low records may vary slightly from our data, if they occured in-between our weather recording intervals... More about our weather records

Advertising

Cranbrook Weather History for the Previous 24 Hours

Scroll right to see more
 ConditionsComfort  
Time TempWeatherWind HumidityBarometerVisibility
5:00 pm
Fri, Jan 20
32 °FBroken clouds.2 mph75%29.42 "Hg25 mi
4:00 pm37 °FPartly sunny.No wind70%29.41 "Hg25 mi
3:00 pm36 °FBroken clouds.No wind75%29.41 "Hg25 mi
2:00 pm36 °FBroken clouds.3 mph75%29.42 "Hg25 mi
1:00 pm34 °FBroken clouds.5 mph81%29.45 "Hg25 mi
12:00 pm32 °FPartly sunny.5 mph87%29.48 "Hg25 mi
11:00 am30 °FPartly sunny.No wind86%29.51 "Hg25 mi
10:00 am27 °FPartly sunny.2 mph100%29.52 "Hg25 mi
9:00 am25 °FPassing clouds.No wind93%29.52 "Hg25 mi
8:00 am27 °FPassing clouds.No wind93%29.52 "Hg25 mi
7:00 am30 °FPassing clouds.3 mph93%29.52 "Hg25 mi
6:00 am28 °FPassing clouds.2 mph93%29.54 "Hg15 mi
5:00 am32 °FPassing clouds.3 mph87%29.54 "Hg15 mi
4:00 am36 °FOvercast.7 mph75%29.54 "Hg25 mi
3:26 am34 °FOvercast.6 mph81%29.54 "Hg25 mi
3:00 am34 °FLight snow. Overcast.6 mph87%29.56 "Hg25 mi
2:37 am36 °FLight snow. Overcast.9 mph75%29.55 "Hg25 mi
2:00 am36 °FOvercast.9 mph75%29.56 "Hg25 mi
1:00 am36 °FPassing clouds.12 mph75%29.56 "Hg25 mi
12:00 am36 °FPassing clouds.10 mph75%29.57 "Hg25 mi
11:00 pm
Thu, Jan 19
34 °FPassing clouds.10 mph81%29.57 "Hg25 mi
10:00 pm34 °FPassing clouds.12 mph87%29.58 "Hg25 mi
9:00 pm36 °FPassing clouds.8 mph81%29.58 "Hg25 mi
8:00 pm37 °FPassing clouds.12 mph75%29.58 "Hg25 mi
7:00 pm37 °FPassing clouds.9 mph75%29.58 "Hg25 mi
Weather by CustomWeather, © 2017

See weather overviewHow to use our weather pages